Time,TemperatureF,DewpointF,PressureIn,WindDirection,WindDirectionDegrees,WindSpeedMPH,WindSpeedGustMPH,Humidity,HourlyPrecipIn,Conditions,Clouds,dailyrainin,SoftwareType,DateUTC
2013-03-17 00:02:00,52.0,40.0,29.86,NE,46,3.0,9.0,63,0.00,,,0.00,,2013-03-17 05:02:00,
2013-03-17 00:12:00,52.0,40.0,29.86,NE,46,3.0,9.0,63,0.00,,,0.00,,2013-03-17 05:12:00,
2013-03-17 00:22:00,51.0,39.0,29.86,NE,39,4.0,7.0,64,0.00,,,0.00,,2013-03-17 05:22:00,
2013-03-17 00:32:00,51.0,40.0,29.86,NE,44,2.0,8.0,65,0.00,,,0.00,,2013-03-17 05:32:00,
2013-03-17 00:42:00,51.0,40.0,29.86,NE,44,2.0,8.0,65,0.00,,,0.00,,2013-03-17 05:42:00,
2013-03-17 00:52:00,50.0,39.0,29.86,East,82,3.0,7.0,65,0.00,,,0.00,,2013-03-17 05:52:00,
2013-03-17 01:02:00,50.0,39.0,29.85,NE,56,1.0,6.0,66,0.00,,,0.00,,2013-03-17 06:02:00,
2013-03-17 01:12:00,50.0,39.0,29.85,NE,56,1.0,6.0,66,0.00,,,0.00,,2013-03-17 06:12:00,
2013-03-17 01:22:00,50.0,39.0,29.85,East,82,3.0,6.0,67,0.00,,,0.00,,2013-03-17 06:22:00,
2013-03-17 01:32:00,49.0,39.0,29.85,ENE,65,2.0,6.0,68,0.00,,,0.00,,2013-03-17 06:32:00,
2013-03-17 01:42:00,49.0,39.0,29.85,ENE,65,2.0,6.0,68,0.00,,,0.00,,2013-03-17 06:42:00,
2013-03-17 01:52:00,49.0,39.0,29.84,ENE,61,3.0,7.0,68,0.00,,,0.00,,2013-03-17 06:52:00,
2013-03-17 02:02:00,49.0,39.0,29.84,ENE,60,5.0,8.0,69,0.00,,,0.00,,2013-03-17 07:02:00,
2013-03-17 02:12:00,49.0,39.0,29.84,ENE,60,5.0,8.0,69,0.00,,,0.00,,2013-03-17 07:12:00,
2013-03-17 02:22:00,49.0,39.0,29.84,ENE,60,5.0,8.0,69,0.00,,,0.00,,2013-03-17 07:22:00,
2013-03-17 02:32:00,48.0,39.0,29.85,NE,34,4.0,8.0,70,0.00,,,0.00,,2013-03-17 07:32:00,
2013-03-17 02:42:00,48.0,39.0,29.85,NE,34,4.0,8.0,70,0.00,,,0.00,,2013-03-17 07:42:00,
2013-03-17 02:52:00,48.0,39.0,29.85,NE,53,3.0,7.0,71,0.00,,,0.00,,2013-03-17 07:52:00,
2013-03-17 03:02:00,47.0,38.0,29.85,NE,53,3.0,12.0,72,0.00,,,0.00,,2013-03-17 08:02:00,
2013-03-17 03:13:00,47.0,39.0,29.86,NE,55,3.0,9.0,74,0.00,,,0.00,,2013-03-17 08:13:00,
2013-03-17 03:22:00,47.0,39.0,29.86,NE,55,3.0,9.0,74,0.00,,,0.00,,2013-03-17 08:22:00,
2013-03-17 03:32:00,46.0,38.0,29.86,NE,56,5.0,11.0,74,0.00,,,0.00,,2013-03-17 08:32:00,
2013-03-17 03:42:00,46.0,38.0,29.86,NE,56,5.0,11.0,74,0.00,,,0.00,,2013-03-17 08:42:00,
2013-03-17 03:52:00,46.0,39.0,29.86,NE,48,4.0,9.0,75,0.00,,,0.00,,2013-03-17 08:52:00,
2013-03-17 04:02:00,46.0,39.0,29.86,NNE,29,5.0,18.0,75,0.00,,,0.00,,2013-03-17 09:02:00,
2013-03-17 04:12:00,46.0,39.0,29.86,NNE,29,5.0,18.0,75,0.00,,,0.00,,2013-03-17 09:12:00,
2013-03-17 04:22:00,45.0,38.0,29.86,ENE,70,4.0,10.0,76,0.00,,,0.00,,2013-03-17 09:22:00,
2013-03-17 04:32:00,45.0,38.0,29.85,NNE,33,4.0,10.0,77,0.00,,,0.00,,2013-03-17 09:32:00,
2013-03-17 04:43:00,45.0,38.0,29.85,NNE,33,4.0,10.0,77,0.00,,,0.00,,2013-03-17 09:43:00,
2013-03-17 04:53:00,45.0,39.0,29.86,NE,49,3.0,8.0,78,0.00,,,0.00,,2013-03-17 09:53:00,
2013-03-17 05:03:00,44.0,38.0,29.87,NNE,30,8.0,14.0,78,0.00,,,0.00,,2013-03-17 10:03:00,
2013-03-17 05:13:00,44.0,38.0,29.87,NNE,30,8.0,14.0,78,0.00,,,0.00,,2013-03-17 10:13:00,
2013-03-17 05:23:00,44.0,38.0,29.87,ESE,105,5.0,12.0,79,0.00,,,0.00,,2013-03-17 10:23:00,
2013-03-17 05:33:00,44.0,38.0,29.88,NE,53,4.0,11.0,79,0.00,,,0.00,,2013-03-17 10:33:00,
2013-03-17 05:42:00,44.0,38.0,29.88,NE,53,4.0,11.0,79,0.00,,,0.00,,2013-03-17 10:42:00,
2013-03-17 05:52:00,44.0,38.0,29.88,East,82,5.0,11.0,79,0.00,,,0.00,,2013-03-17 10:52:00,
2013-03-17 06:02:00,43.0,37.0,29.89,ENE,57,4.0,10.0,79,0.00,,,0.00,,2013-03-17 11:02:00,
2013-03-17 06:12:00,43.0,37.0,29.89,ENE,57,4.0,10.0,79,0.00,,,0.00,,2013-03-17 11:12:00,
2013-03-17 06:22:00,43.0,37.0,29.89,ENE,65,7.0,15.0,79,0.00,,,0.00,,2013-03-17 11:22:00,
2013-03-17 06:32:00,43.0,37.0,29.88,ENE,72,6.0,9.0,80,0.00,,,0.00,,2013-03-17 11:32:00,
2013-03-17 06:42:00,43.0,37.0,29.88,ENE,72,6.0,9.0,80,0.00,,,0.00,,2013-03-17 11:42:00,
2013-03-17 06:52:00,43.0,38.0,29.89,NE,37,4.0,12.0,81,0.00,,,0.00,,2013-03-17 11:52:00,
2013-03-17 07:02:00,42.0,37.0,29.89,NE,45,3.0,7.0,81,0.00,,,0.00,,2013-03-17 12:02:00,
2013-03-17 07:12:00,42.0,37.0,29.89,NE,45,3.0,7.0,81,0.00,,,0.00,,2013-03-17 12:12:00,
2013-03-17 07:22:00,42.0,36.0,29.90,ENE,59,1.0,7.0,80,0.00,,,0.00,,2013-03-17 12:22:00,
2013-03-17 07:32:00,42.0,36.0,29.88,NE,53,3.0,10.0,80,0.00,,,0.00,,2013-03-17 12:32:00,
2013-03-17 07:43:00,42.0,36.0,29.88,NE,53,3.0,10.0,80,0.00,,,0.00,,2013-03-17 12:43:00,
2013-03-17 07:52:00,42.0,36.0,29.90,ENE,59,4.0,7.0,80,0.00,,,0.00,,2013-03-17 12:52:00,
2013-03-17 08:02:00,42.0,36.0,29.91,NE,37,5.0,12.0,80,0.00,,,0.00,,2013-03-17 13:02:00,
2013-03-17 08:12:00,42.0,36.0,29.91,NE,37,5.0,12.0,80,0.00,,,0.00,,2013-03-17 13:12:00,
2013-03-17 08:22:00,42.0,36.0,29.92,NNE,28,7.0,12.0,80,0.00,,,0.00,,2013-03-17 13:22:00,
2013-03-17 08:32:00,42.0,37.0,29.92,NNE,17,3.0,9.0,81,0.00,,,0.00,,2013-03-17 13:32:00,
2013-03-17 08:42:00,42.0,37.0,29.92,NNE,17,3.0,9.0,81,0.00,,,0.00,,2013-03-17 13:42:00,
2013-03-17 08:52:00,41.0,37.0,29.93,ENE,58,5.0,12.0,85,0.00,,,0.00,,2013-03-17 13:52:00,
2013-03-17 09:02:00,40.0,37.0,29.96,ENE,63,3.0,12.0,89,0.00,,,0.00,,2013-03-17 14:02:00,
2013-03-17 09:12:00,40.0,37.0,29.96,ENE,63,3.0,12.0,89,0.00,,,0.00,,2013-03-17 14:12:00,
2013-03-17 09:22:00,40.0,38.0,29.96,East,84,3.0,9.0,91,0.00,,,0.00,,2013-03-17 14:22:00,
2013-03-17 09:32:00,39.0,37.0,29.95,NNE,30,6.0,13.0,92,0.00,,,0.00,,2013-03-17 14:32:00,
2013-03-17 09:42:00,39.0,37.0,29.95,NNE,30,6.0,13.0,92,0.00,,,0.00,,2013-03-17 14:42:00,
2013-03-17 09:52:00,39.0,37.0,29.94,NE,56,5.0,10.0,94,0.03,,,0.03,,2013-03-17 14:52:00,
2013-03-17 10:02:00,39.0,37.0,29.94,ENE,67,5.0,14.0,94,0.07,,,0.07,,2013-03-17 15:02:00,
2013-03-17 10:12:00,39.0,37.0,29.94,ENE,67,5.0,14.0,94,0.07,,,0.07,,2013-03-17 15:12:00,
2013-03-17 10:23:00,39.0,37.0,29.93,ENE,59,4.0,10.0,94,0.08,,,0.08,,2013-03-17 15:23:00,
2013-03-17 10:33:00,39.0,37.0,29.93,NE,50,4.0,12.0,93,0.08,,,0.08,,2013-03-17 15:33:00,
2013-03-17 10:43:00,39.0,37.0,29.93,NE,50,4.0,12.0,93,0.08,,,0.08,,2013-03-17 15:43:00,
2013-03-17 10:52:00,39.0,37.0,29.93,ESE,105,5.0,8.0,93,0.05,,,0.08,,2013-03-17 15:52:00,
2013-03-17 11:03:00,39.0,37.0,29.92,East,86,4.0,10.0,92,0.01,,,0.08,,2013-03-17 16:03:00,
2013-03-17 11:12:00,39.0,37.0,29.92,East,86,4.0,10.0,92,0.01,,,0.08,,2013-03-17 16:12:00,
2013-03-17 11:22:00,39.0,37.0,29.92,NE,49,2.0,10.0,93,0.00,,,0.08,,2013-03-17 16:22:00,
2013-03-17 11:33:00,39.0,37.0,29.91,East,86,3.0,7.0,92,0.00,,,0.08,,2013-03-17 16:33:00,
2013-03-17 11:42:00,39.0,37.0,29.91,East,86,3.0,7.0,92,0.00,,,0.08,,2013-03-17 16:42:00,
2013-03-17 11:52:00,39.0,37.0,29.91,ENE,63,2.0,9.0,92,0.00,,,0.08,,2013-03-17 16:52:00,
2013-03-17 12:02:00,39.0,37.0,29.91,East,80,3.0,8.0,91,0.00,,,0.08,,2013-03-17 17:02:00,
2013-03-17 12:12:00,39.0,37.0,29.91,East,80,3.0,8.0,91,0.00,,,0.08,,2013-03-17 17:12:00,
2013-03-17 12:22:00,39.0,37.0,29.90,East,81,3.0,8.0,91,0.00,,,0.08,,2013-03-17 17:22:00,
2013-03-17 12:33:00,40.0,38.0,29.89,ENE,75,2.0,10.0,91,0.00,,,0.08,,2013-03-17 17:33:00,
2013-03-17 12:42:00,40.0,38.0,29.89,ENE,75,2.0,10.0,91,0.00,,,0.08,,2013-03-17 17:42:00,
2013-03-17 12:52:00,40.0,38.0,29.90,East,79,3.0,9.0,91,0.00,,,0.08,,2013-03-17 17:52:00,
2013-03-17 13:02:00,40.0,38.0,29.89,East,85,2.0,5.0,92,0.01,,,0.09,,2013-03-17 18:02:00,
2013-03-17 13:12:00,40.0,38.0,29.89,East,85,2.0,5.0,92,0.01,,,0.09,,2013-03-17 18:12:00,
2013-03-17 13:22:00,40.0,38.0,29.88,NE,53,3.0,7.0,93,0.02,,,0.10,,2013-03-17 18:22:00,
2013-03-17 13:32:00,40.0,38.0,29.88,ENE,67,2.0,5.0,93,0.02,,,0.10,,2013-03-17 18:32:00,
2013-03-17 13:42:00,40.0,38.0,29.88,ENE,67,2.0,5.0,93,0.02,,,0.10,,2013-03-17 18:42:00,
2013-03-17 13:52:00,40.0,38.0,29.87,NE,49,2.0,5.0,93,0.02,,,0.10,,2013-03-17 18:52:00,
2013-03-17 14:02:00,40.0,38.0,29.86,SSE,149,1.0,8.0,94,0.01,,,0.10,,2013-03-17 19:02:00,
2013-03-17 14:12:00,40.0,38.0,29.86,SSE,149,1.0,8.0,94,0.01,,,0.10,,2013-03-17 19:12:00,
2013-03-17 14:22:00,40.0,38.0,29.84,ENE,63,2.0,8.0,94,0.00,,,0.10,,2013-03-17 19:22:00,
2013-03-17 14:33:00,40.0,38.0,29.83,SSE,148,3.0,8.0,94,0.00,,,0.10,,2013-03-17 19:33:00,
2013-03-17 14:42:00,40.0,38.0,29.83,SSE,148,3.0,8.0,94,0.00,,,0.10,,2013-03-17 19:42:00,
2013-03-17 14:53:00,40.0,38.0,29.83,SE,133,3.0,6.0,94,0.00,,,0.10,,2013-03-17 19:53:00,
2013-03-17 15:02:00,40.0,38.0,29.82,SE,129,4.0,8.0,94,0.00,,,0.10,,2013-03-17 20:02:00,
2013-03-17 15:12:00,40.0,38.0,29.82,SE,129,4.0,8.0,94,0.00,,,0.10,,2013-03-17 20:12:00,
2013-03-17 15:22:00,40.0,39.0,29.80,East,79,3.0,7.0,95,0.00,,,0.10,,2013-03-17 20:22:00,
2013-03-17 15:33:00,40.0,39.0,29.80,ENE,67,3.0,9.0,95,0.00,,,0.10,,2013-03-17 20:33:00,
2013-03-17 15:42:00,40.0,39.0,29.80,ENE,67,3.0,9.0,95,0.00,,,0.10,,2013-03-17 20:42:00,
2013-03-17 15:52:00,40.0,39.0,29.79,ENE,65,2.0,5.0,95,0.00,,,0.10,,2013-03-17 20:52:00,
2013-03-17 16:02:00,40.0,39.0,29.79,ESE,103,1.0,5.0,96,0.00,,,0.10,,2013-03-17 21:02:00,
2013-03-17 16:12:00,40.0,39.0,29.79,ESE,103,1.0,5.0,96,0.00,,,0.10,,2013-03-17 21:12:00,
2013-03-17 16:22:00,40.0,39.0,29.78,East,98,3.0,8.0,96,0.00,,,0.10,,2013-03-17 21:22:00,
2013-03-17 16:33:00,40.0,39.0,29.77,SSE,157,4.0,8.0,96,0.00,,,0.10,,2013-03-17 21:33:00,
2013-03-17 16:43:00,40.0,39.0,29.77,SSE,157,4.0,8.0,96,0.00,,,0.10,,2013-03-17 21:43:00,
2013-03-17 16:52:00,40.0,39.0,29.77,ESE,107,4.0,9.0,96,0.00,,,0.10,,2013-03-17 21:52:00,
2013-03-17 17:03:00,40.0,39.0,29.76,ESE,113,3.0,7.0,96,0.00,,,0.10,,2013-03-17 22:03:00,
2013-03-17 17:12:00,40.0,39.0,29.76,ESE,113,3.0,6.0,96,0.00,,,0.10,,2013-03-17 22:12:00,
2013-03-17 17:23:00,40.0,39.0,29.76,ESE,113,3.0,6.0,96,0.00,,,0.10,,2013-03-17 22:23:00,
2013-03-17 17:33:00,40.0,39.0,29.75,East,98,5.0,9.0,96,0.02,,,0.12,,2013-03-17 22:33:00,
2013-03-17 17:42:00,40.0,39.0,29.75,East,98,5.0,9.0,96,0.02,,,0.12,,2013-03-17 22:42:00,
2013-03-17 17:52:00,40.0,39.0,29.73,ENE,66,2.0,11.0,96,0.02,,,0.12,,2013-03-17 22:52:00,
2013-03-17 18:02:00,40.0,39.0,29.73,East,91,5.0,12.0,96,0.04,,,0.14,,2013-03-17 23:02:00,
2013-03-17 18:12:00,40.0,39.0,29.73,East,91,5.0,12.0,96,0.04,,,0.14,,2013-03-17 23:12:00,
2013-03-17 18:22:00,40.0,39.0,29.72,ESE,119,5.0,10.0,96,0.04,,,0.14,,2013-03-17 23:22:00,
2013-03-17 18:33:00,40.0,39.0,29.73,ENE,70,1.0,5.0,96,0.02,,,0.14,,2013-03-17 23:33:00,
2013-03-17 18:42:00,40.0,39.0,29.73,ENE,70,1.0,5.0,96,0.02,,,0.14,,2013-03-17 23:42:00,
2013-03-17 18:52:00,40.0,39.0,29.73,ESE,116,3.0,6.0,96,0.02,,,0.14,,2013-03-17 23:52:00,
2013-03-17 19:03:00,40.0,39.0,29.72,ESE,109,2.0,8.0,97,0.00,,,0.14,,2013-03-18 00:03:00,
2013-03-17 19:12:00,40.0,39.0,29.72,ESE,109,2.0,8.0,97,0.00,,,0.14,,2013-03-18 00:12:00,
2013-03-17 19:22:00,40.0,39.0,29.72,ESE,109,1.0,8.0,97,0.00,,,0.14,,2013-03-18 00:22:00,
2013-03-17 19:33:00,40.0,39.0,29.71,SE,131,1.0,10.0,97,0.00,,,0.14,,2013-03-18 00:33:00,
2013-03-17 19:42:00,40.0,39.0,29.71,SE,131,1.0,10.0,97,0.00,,,0.14,,2013-03-18 00:42:00,
2013-03-17 19:52:00,40.0,39.0,29.71,NE,51,4.0,11.0,97,0.00,,,0.14,,2013-03-18 00:52:00,
2013-03-17 20:02:00,40.0,39.0,29.70,ESE,116,4.0,7.0,97,0.00,,,0.14,,2013-03-18 01:02:00,
2013-03-17 20:12:00,40.0,39.0,29.70,ESE,116,4.0,7.0,97,0.00,,,0.14,,2013-03-18 01:12:00,
2013-03-17 20:22:00,40.0,39.0,29.70,East,96,4.0,10.0,97,0.00,,,0.14,,2013-03-18 01:22:00,
2013-03-17 20:32:00,40.0,39.0,29.74,NW,323,1.0,5.0,97,0.00,,,0.14,,2013-03-18 01:32:00,
2013-03-17 20:42:00,40.0,39.0,29.74,NW,323,1.0,5.0,97,0.00,,,0.14,,2013-03-18 01:42:00,
2013-03-17 20:52:00,40.0,39.0,29.75,WNW,299,1.0,4.0,98,0.00,,,0.14,,2013-03-18 01:52:00,
2013-03-17 21:02:00,40.0,39.0,29.76,NW,314,2.0,5.0,98,0.02,,,0.16,,2013-03-18 02:02:00,
2013-03-17 21:12:00,40.0,39.0,29.76,NW,314,2.0,5.0,98,0.02,,,0.16,,2013-03-18 02:12:00,
2013-03-17 21:22:00,40.0,39.0,29.74,ENE,60,2.0,6.0,98,0.04,,,0.18,,2013-03-18 02:22:00,
2013-03-17 21:32:00,40.0,39.0,29.73,ENE,63,3.0,6.0,97,0.05,,,0.19,,2013-03-18 02:32:00,
2013-03-17 21:42:00,40.0,39.0,29.73,ENE,63,3.0,6.0,97,0.05,,,0.19,,2013-03-18 02:42:00,
2013-03-17 21:52:00,40.0,39.0,29.75,NW,321,1.0,3.0,98,0.05,,,0.19,,2013-03-18 02:52:00,
2013-03-17 22:03:00,40.0,39.0,29.75,NE,36,3.0,6.0,98,0.05,,,0.21,,2013-03-18 03:03:00,
2013-03-17 22:11:00,40.0,39.0,29.75,NE,36,3.0,6.0,98,0.05,,,0.21,,2013-03-18 03:11:00,
2013-03-17 22:22:00,40.0,39.0,29.74,NE,56,3.0,6.0,98,0.03,,,0.21,,2013-03-18 03:22:00,
2013-03-17 22:33:00,40.0,39.0,29.73,ENE,63,2.0,5.0,98,0.02,,,0.21,,2013-03-18 03:33:00,
2013-03-17 22:42:00,40.0,39.0,29.73,ENE,63,2.0,5.0,98,0.02,,,0.21,,2013-03-18 03:42:00,
2013-03-17 22:53:00,40.0,39.0,29.74,NE,39,2.0,5.0,97,0.02,,,0.21,,2013-03-18 03:53:00,
2013-03-17 23:03:00,40.0,39.0,29.74,ESE,109,1.0,4.0,97,0.00,,,0.21,,2013-03-18 04:03:00,
2013-03-17 23:13:00,40.0,39.0,29.74,ESE,109,1.0,4.0,97,0.00,,,0.21,,2013-03-18 04:13:00,
2013-03-17 23:23:00,40.0,39.0,29.73,ESE,114,1.0,3.0,97,0.00,,,0.21,,2013-03-18 04:23:00,
2013-03-17 23:33:00,40.0,39.0,29.73,ESE,114,1.0,3.0,97,0.00,,,0.21,,2013-03-18 04:33:00,
2013-03-17 23:42:00,40.0,39.0,29.73,ESE,114,1.0,3.0,97,0.00,,,0.21,,2013-03-18 04:42:00,
2013-03-17 23:52:00,40.0,39.0,29.73,East,86,0.0,2.0,97,0.00,,,0.21,,2013-03-18 04:52:00,